STARLINK-32536, 61925

Orbit data source: Space-Track

STARLINK-32536, 61925 is a payload satellite owned by SpaceX/Seattle (US) in LEO that was launched on Mon, 11 Nov 2024 UTC via an FALCON 9 launch vehicle from the Air Force Eastern Test Range (AFETR). Payload-class satellites include a variety of spacecraft equipped with specific instruments for various scientific and technological missions. These include communications satellites like Starlink; space stations such as the ISS; scientific satellites like the Hubble; Earth observation satellites from companies like Planet Labs, Umbra, and HawkEye 360; GPS; miniature CubeSats for education and research; and military/defense satellites.

Loading next visibility...
Identifier
61925, 2024-207P
Orbit
LEO
Country
Flag of USUS
Related business
Manufacturer
SpaceX/Seattle
Mission
Operational Commercial Communications
Bus & Motor
STARLINK V2M, Unknown motor
Mass
730 kg wet, ~700 kg dry
Launch date (UTC)
2024-11-11 (10 months ago)
Launch vehicle
FALCON 9
Launch site
Air Force Eastern Test Range (AFETR)
Object type
Payload
Rocket body
Debris
Shape & HBR
Box + 2 Pan, 14.5 m
Radar Cross Section
36.964 m², Large (>1 m²)

Expand to show TLE details & history
Last TLE update: 1 day ago

TLE from 1 day ago
0 STARLINK-32536
1 61925U 24207P   25261.18339758  .00031674  00000-0  11544-2 0  9996
2 61925  42.9992 179.9273 0001560 251.6430 108.4252 15.27614650 48293
Epoch: 2025-09-18T04:24Z
TLE epoch observation values (Epoch: 2025-09-18T04:24:05.55Z)
Latitude
-0.00004°
Longitude
116.55548°
Altitude
483.059 km
Speed
7.626 km/s
True Right ascension
11h 59m 42s
True Declination
0° 00' 00"
Sunlit
Object was in daylight at epoch
Visualization orbit readout
Latitude
Unknown
Longitude
Unknown
Altitude
Unknown
Speed
Unknown
Apparent Right ascension
Unknown
Apparent Declination
Unknown
Sunlit
N/A
Visualization observer readout
Local Sidereal Time
00:28:23
Azimuth
Unknown
Elevation
Unknown
Doppler factor
Unknown
Orbital elements
Apogee altitude
485.961 km
Perigee altitude
483.82 km
Semi-major axis
6,863.028 km
Eccentricity
0.00016
Inclination
42.9992°
RAAN
179.9273°
Arg. of periapsis
251.643°
True anomaly
108.44216°
Mean anomaly
108.4252°
Eccentric anomaly
108.43368°
Mean motion
3.81742 °/min
Orbital period
94.3 mins
BSTAR
0.0011544
Loading maneuver chart data...
Computing Atmospheric mass density...
Loading historical data...
Loading historical data...
Loading historical data...
Loading historical data...
Loading historical data...
Loading historical data...
Loading historical data...

Documentation

Showing up to 5 results
|